Flag for Burundi Weather past 2 weeks in Gitega, Burundi

Now
64 °F

Passing clouds.


Feels Like: 64 °F
Forecast: 57 / 77 °F
Wind: No wind

Location: Kigali Airport

Current Time: Sep 19, 2014 at 11:59:51 PM

Latest Report: Sep 19, 2014 at 11:30 PM


Visibility: N/A

Pressure: 30.15 "Hg

Humidity: 94%

Dew point: 63 °F

Location of GitegaLocation

Historic Weather in Gitega — Graph

°F

Gitega temperature yesterday

Maximum temperature yesterday: 86 °F (at 1:00 PM)
Minimum temperature yesterday: 61 °F (at 4:00 AM)
Average temperature yesterday: 72 °F

Past Weeks' High & Low Weather Summary

 TemperatureHumidityPressure
High86 °F (Sep 12, 3:00 PM)100% (Sep 4, 11:00 PM)30.30 "Hg (Sep 4, 11:00 PM)
Low52 °F (Sep 11, 2:00 AM)32% (Sep 12, 5:30 PM)30.01 "Hg (Sep 10, 4:00 PM)
Average70 °F75%30.14 "Hg
* Reported Sep 4 11:00 PM — Sep 19 11:00 PM, Gitega, Weather by CustomWeather, © 2014

Note: Actual official high and low records may vary slightly from our data, if they occured in-between our weather recording intervals... More about our weather records

Advertising

Gitega weather history for previous 24 hours

 ConditionsComfort  
Time TempWeatherWind HumidityBarometerVisibility
11:00 PM
Sep 19
64 °FPassing clouds.3 mph94%30.15 "HgN/A
10:30 PM64 °FPassing clouds.3 mph94%30.15 "HgN/A
10:00 PM64 °FPassing clouds.3 mph94%30.15 "HgN/A
9:30 PM66 °FPassing clouds.3 mph88%30.15 "HgN/A
9:00 PM66 °FPassing clouds.No wind88%30.15 "HgN/A
8:30 PM66 °FPassing clouds.No wind88%30.15 "HgN/A
8:00 PM66 °FPassing clouds.No wind94%30.15 "HgN/A
7:30 PM66 °FPassing clouds.3 mph94%30.12 "HgN/A
7:00 PM66 °FPassing clouds.No wind88%30.15 "HgN/A
6:30 PM68 °FPassing clouds.3 mph88%30.12 "HgN/A
5:30 PM68 °FScattered clouds.3 mph88%30.09 "HgN/A
5:00 PM68 °FPartly sunny.3 mph94%30.09 "HgN/A
4:30 PM68 °FPartly sunny.6 mph88%30.09 "HgN/A
4:00 PM68 °FPartly sunny.7 mph94%30.09 "HgN/A
3:30 PM68 °FPartly sunny.6 mph94%30.09 "HgN/A
3:00 PM66 °FThunderstorms. Partly sunny.8 mph100%30.09 "HgN/A
2:30 PM75 °FThunderstorms. Partly sunny.13 mph69%30.09 "HgN/A
2:00 PM77 °FPartly sunny.3 mph61%30.07 "HgN/A
1:30 PM81 °FPartly sunny.3 mph58%30.09 "HgN/A
1:00 PM81 °FPartly sunny.9 mph58%30.09 "HgN/A
12:30 PM81 °FPartly sunny.9 mph58%30.12 "HgN/A
12:00 PM79 °FPartly sunny.9 mph58%30.15 "HgN/A
11:30 AM79 °FScattered clouds.7 mph61%30.15 "HgN/A
11:00 AM77 °FScattered clouds.7 mph65%30.18 "HgN/A
10:30 AM75 °FScattered clouds.5 mph69%30.21 "HgN/A
10:00 AM73 °FScattered clouds.9 mph69%30.21 "HgN/A
9:00 AM70 °FScattered clouds.7 mph78%30.21 "HgN/A
8:00 AM68 °FScattered clouds.5 mph83%30.18 "Hg5 mi
7:30 AM68 °FScattered clouds.3 mph88%30.18 "HgN/A
7:00 AM64 °FScattered clouds.3 mph94%30.18 "HgN/A
6:30 AM64 °FScattered clouds.5 mph94%30.15 "HgN/A
6:00 AM63 °FScattered clouds.5 mph100%30.12 "Hg5 mi
5:30 AM63 °FPassing clouds.No wind100%30.12 "Hg5 mi
5:00 AM63 °FPassing clouds.No wind100%30.12 "Hg5 mi
4:00 AM64 °FMild.No wind88%30.09 "HgN/A
3:00 AM64 °FMild.No wind88%30.09 "HgN/A
2:30 AM66 °FMild.No wind88%30.09 "HgN/A
2:00 AM66 °FMild.No wind88%30.09 "HgN/A
1:30 AM66 °FMild.6 mph88%30.12 "HgN/A
1:00 AM68 °FPassing clouds.No wind83%30.12 "HgN/A
11:00 PM
Sep 18
70 °FPassing clouds.5 mph73%30.15 "HgN/A
Weather by CustomWeather, © 2014

See weather overviewHow to use our weather pages